Weather History for Broken Bow, NE

Change the Weather History Date:

Saturday, January 5, 2013

  Actual Average Record
Temperature  
Mean Temperature 22 °F 25 °F  
Max Temperature 40 °F 37 °F 67 °F (1989)
Min Temperature 3 °F 14 °F -22 °F (1988)
Degree Days  
Heating Degree Days 43 40  
Month to date heating degree days 217 200  
Cooling Degree Days 0 0  
Month to date cooling degree days 0 0  
Year to date cooling degree days 0 0  
Moisture  
Dew Point 15 °F    
Average Humidity 69    
Maximum Humidity 88    
Minimum Humidity 50    
Precipitation  
Precipitation 0.00 in 0.01 in 0.40 in (1944)
Sea Level Pressure  
Sea Level Pressure 30.16 in    
Wind  
Wind Speed 13 mph (NW)    
Max Wind Speed 32 mph    
Max Gust Speed 41 mph    
Visibility 10 miles    
Events      
T = Trace of Precipitation, MM = Missing Value Source: NWS Daily Summary

Daily Weather History Graph

Daily Weather History Graph

Search for Another Location

Airport:

Trip Planner

Search our weather history database for the weather conditions in past years. The results will help you decide how hot, cold, wet, or windy it might be!

Date:

Astronomy

Jan. 05, 2013 Rise Set
Actual Time 8:04 AM CST 5:23 PM CST
Civil Twilight 7:33 AM CST 5:54 PM CST
Nautical Twilight 6:59 AM CST 6:29 PM CST
Astronomical Twilight 6:25 AM CST 7:02 PM CST
Moon 1:10 AM CST (1/5) 12:16 PM CST (1/5)
Length of Visible Light 10h 20m
Length of Day
9h 18m
Last Quarter, 44% of the Moon is Illuminated
Jan 5
Last Quarter
Jan 11
New
Jan 18
First Quarter
Jan 26
Full
Feb 3
Last Quarter

Hourly Weather History & Observations

Time (CST) Temp. Windchill Dew Point Humidity Pressure Visibility Wind Dir Wind Speed Gust Speed Precip Events Conditions
12:53 AM 27.0 °F 21.6 °F 12.9 °F 56% 30.03 in 10.0 mi Variable 4.6 mph - N/A   Clear
1:53 AM 17.1 °F 6.6 °F 10.9 °F 77% 30.04 in 10.0 mi SE 8.1 mph - N/A   Clear
2:53 AM 14.0 °F 3.9 °F 9.0 °F 80% 30.04 in 10.0 mi SE 6.9 mph - N/A   Clear
3:53 AM 8.6 °F - 5.0 °F 85% 29.96 in 10.0 mi Calm Calm - N/A   Clear
4:53 AM 8.1 °F - 5.0 °F 87% 30.06 in 10.0 mi Calm Calm - N/A   Clear
5:53 AM 7.0 °F -1.7 °F 3.0 °F 84% 30.09 in 10.0 mi West 4.6 mph - N/A   Clear
6:53 AM 7.0 °F - 3.0 °F 84% 30.12 in 10.0 mi Calm Calm - N/A   Clear
7:53 AM 8.1 °F - 5.0 °F 87% 30.14 in 10.0 mi Calm Calm - N/A   Clear
8:53 AM 25.0 °F 13.1 °F 12.9 °F 60% 30.12 in 10.0 mi NNW 13.8 mph - N/A   Clear
9:53 AM 30.9 °F 21.2 °F 17.1 °F 57% 30.13 in 10.0 mi NNW 12.7 mph - N/A   Clear
10:53 AM 34.0 °F 23.0 °F 19.9 °F 56% 30.13 in 10.0 mi NNW 18.4 mph - N/A   Clear
11:53 AM 37.0 °F 27.7 °F 21.9 °F 54% 30.14 in 10.0 mi NNW 16.1 mph - N/A   Clear
12:53 PM 39.9 °F 29.2 °F 23.0 °F 51% 30.12 in 10.0 mi NW 25.3 mph 36.8 mph N/A   Clear
1:53 PM 39.9 °F 29.0 °F 23.0 °F 51% 30.12 in 10.0 mi NW 26.5 mph 38.0 mph N/A   Clear
2:53 PM 39.0 °F 28.0 °F 23.0 °F 53% 30.14 in 10.0 mi NW 25.3 mph 40.3 mph N/A   Clear
3:53 PM 37.0 °F 25.6 °F 21.9 °F 54% 30.18 in 10.0 mi NW 24.2 mph 32.2 mph N/A   Clear
4:53 PM 35.1 °F 24.5 °F 21.0 °F 57% 30.21 in 10.0 mi NW 18.4 mph - N/A   Clear
5:53 PM 33.1 °F 21.2 °F 21.0 °F 61% 30.24 in 10.0 mi NW 20.7 mph 26.5 mph N/A   Clear
6:53 PM 30.9 °F 19.1 °F 19.9 °F 64% 30.28 in 10.0 mi NW 18.4 mph 26.5 mph N/A   Clear
7:53 PM 30.0 °F 17.9 °F 19.9 °F 66% 30.29 in 10.0 mi NW 18.4 mph 26.5 mph N/A   Clear
8:53 PM 28.0 °F 17.5 °F 19.0 °F 69% 30.28 in 10.0 mi NW 12.7 mph - N/A   Clear
9:53 PM 26.1 °F 15.6 °F 18.0 °F 71% 30.29 in 10.0 mi NW 11.5 mph - N/A   Clear
10:53 PM 24.1 °F 14.4 °F 17.1 °F 75% 30.30 in 10.0 mi NW 9.2 mph - N/A   Clear
11:53 PM 23.0 °F 13.1 °F 17.1 °F 78% 30.30 in 10.0 mi NW 9.2 mph - N/A   Clear